Regional Weather Roundup
Issued by NWS

Home | Current Version | Previous Version | Text Only | Print | Product List | Glossary On
Versions: 1 2 3 4 5 6 7 8 9 10 11 12 13 14 15 16 17 18 19 20 21 22 23 24 25 26 27 28 29 30 31 32 33 34 35 36 37 38 39 40 41 42 43 44 45 46 47 48 49 50
034
ASUS42 KKEY 111510
RWRKEY

FLORIDA REGIONAL WEATHER ROUNDUP FOR THE FLORIDA KEYS
NATIONAL WEATHER SERVICE KEY WEST FLORIDA
1000 AM EST SUN DEC 11 2016

...SOUTH FLORIDA AND THE KEYS...

CITY           SKY/WX    TMP DP  RH WIND       PRES   REMARKS
FORT MYERS     CLOUDY    73  64  73 E14G20    30.22R
SW REGIONAL AP CLOUDY    74  64  71 E13       30.23R
NAPLES         PTSUNNY   75  65  70 E17G26    30.21R
MIAMI          LGT RAIN  71  70  96 E12       30.22R FOG
WEST KENDALL   LGT RAIN  73  70  90 E12       30.22R
HOMESTEAD      DRIZZLE   73  73 100 E13       30.21R
MARATHON       CLOUDY    79  71  76 E10G17    30.17R
BOCA CHICA NAS LGT RAIN  73  71  93 E13       30.16R
KEY WEST INTL  CLOUDY    75  73  93 NE8G17    30.17R

...INTERNATIONAL WEATHER...

CITY           SKY/WX    TMP DP  RH WIND       PRES   REMARKS
NASSAU BAHAMAS MOSUNNY   77  75  94 E12       30.21
CANCUN MEXICO  PTSUNNY   81  72  74 NE9       30.10R
COZUMEL MEXICO MOSUNNY   82  72  69 E7        30.08R

ADJACENT COASTAL WATERS...

STATION/POSITION TIME  SKY/WX   TEMP    WIND        PRES    WAVE
                                AIR SEA DIR/SP/G            HT/PER
                 (UTC)          (F)     (DEG/KT/KT) (MB)    (FT/S)
PULASKI SHOAL LI 1500            74      80/ 22/ 24 1021.5R
SAND KEY         1450            75      80/ 19/ 22 1021.8R
LONG KEY         1500            76 74   90/ 19/ 20 1022.2R
MOLASSES REEF    1400            75 77   80/ 23/ 26 1021.9R
FOWEY ROCKS      1500            76 78   80/ 31/ 32 1023.2R

$$




USA.gov is the U.S. government's official web portal to all federal, state and local government web resources and services.